AirNav   Air Wisconsin Up To $57,000 Bonus
 
 1524 users online  

KGKY Arlington Municipal Airport
Arlington, Texas, USA

GOING TO ARLINGTON?


FAA INFORMATION EFFECTIVE 18 JULY 2019

Location

FAA Identifier: GKY
Lat/Long: 32-39-49.9000N / 097-05-39.4000W
32-39.831667N / 097-05.656667W
32.6638611 / -97.0942778
(estimated)
Elevation: 628.2 ft. / 191.5 m (surveyed)
Variation: 06E (2000)
From city: 4 miles S of ARLINGTON, TX
Time zone: UTC -5 (UTC -6 during Standard Time)
Zip code: 76018

Airport Operations

Airport use: Open to the public
Activation date: 05/1971
Control tower: yes
ARTCC: FORT WORTH CENTER
FSS: FORT WORTH FLIGHT SERVICE STATION
NOTAMs facility: GKY (NOTAM-D service available)
Attendance: CONTINUOUS
Wind indicator: lighted
Segmented circle: yes
Lights: MIRL RY 16/34 PRESET MED INTST; HIGHER INTST BY ATCT REQ. WHEN ATCT CLSD ACTVT MALSR RY 34 - CTAF. PAPI RYS 16 & 34 OPER CONTINUOUSLY.
Beacon: white-green (lighted land airport)
Operates sunset to sunrise.

Airport Communications

CTAF: 128.625
WX ASOS: 127.375 (817-557-0251)
ARLINGTON GROUND: 121.875 [0700-2100]
ARLINGTON TOWER: 128.625 [0700-2100]
REGIONAL APPROACH: 135.975
REGIONAL DEPARTURE: 135.975
CLEARANCE DELIVERY: 121.875 118.85 ;WHEN GKY ATCT CLSD
DODJE STAR: 125.2 125.9
KNEAD STAR: 135.975
LIKES STAR: 125.8 ;(SOUTH) 135.975 ;(NORTH)
MOTZA STAR: 118.1 ;(SOUTH) 125.8 ;(NORTH)
REEKO STAR: 125.2
SANGR STAR: 124.3
SASIE STAR: 124.3
SLUGG STAR: 125.8 ;(SOUTH) 135.975 ;(NORTH)
SWVAY STAR: 135.975
WESAT STAR: 118.1 ;(SOUTH) 125.8 ;(NORTH)
WX AWOS-3P at GPM (3 nm NE): 118.475 (972-606-1433)
WX ASOS at RBD (11 nm E): PHONE 214-330-5317
WX AWOS-3 at FWS (12 nm SW): 120.025 (817-426-4172)
WX ASOS at DFW (14 nm N): PHONE 972-615-2608
WX AWOS-3 at JWY (15 nm SE): 119.575 (972-937-4747)
WX AWOS-3 at 49T (16 nm NE): 135.425 (214-670-1243)
WX ASOS at DAL (16 nm NE): PHONE 214-353-1551
WX ASOS at FTW (16 nm NW): PHONE 817-740-3346
WX AWOS-3 at LNC (20 nm E): 118.975 (972-227-0471)

Nearby radio navigation aids

VOR radial/distance  VOR name  Freq  Var
TTTr186/12.6MAVERICK VOR/DME113.1006E
FUZr156/14.2RANGER VORTAC115.7006E
CVEr209/16.6COWBOY VOR/DME116.2006E

 
NDB name  Hdg/Dist  Freq  Var  ID
MESQUITE250/29.824803EPQF .--. --.- ..-.

Airport Services

Fuel available: 100LL JET-A
SELF SERVE FUEL WITH MAJOR CREDIT CARD.
Parking: hangars and tiedowns
Airframe service: MAJOR
Powerplant service: MAJOR
Bottled oxygen: LOW
Bulk oxygen: NONE

Runway Information

Runway 16/34

Dimensions: 6080 x 100 ft. / 1853 x 30 m
Surface: concrete, in good condition
Weight bearing capacity: 
Single wheel: 60.0
Runway edge lights: medium intensity
RUNWAY 16  RUNWAY 34
Latitude: 32-40.322683N32-39.341885N
Longitude: 097-05.779817W097-05.533875W
Elevation: 628.2 ft.596.9 ft.
Traffic pattern: leftleft
Runway heading: 162 magnetic, 168 true342 magnetic, 348 true
Markings: nonprecision, in good conditionprecision, in good condition
Visual slope indicator: 4-light PAPI on left (3.00 degrees glide path)4-light PAPI on left (3.00 degrees glide path)
PAPI UNUSABLE BYD 8 DEGS RIGHT OF RY CNTRLN.
Approach lights: MALSR: 1,400 foot medium intensity approach lighting system with runway alignment indicator lights
Runway end identifier lights: yesno
Touchdown point: yes, no lightsyes, no lights
Instrument approach: ILS/DME

Airport Ownership and Management from official FAA records

Ownership: Publicly-owned
Owner: CITY OF ARLINGTON
PO BOX 90231
ARLINGTON, TX 76004-3231
Phone 817-459-6100
Manager: KAREN VAN WINKLE
5000 S. COLLINS
ARLINGTON, TX 76004-3231
Phone 817-459-5570
SUITE 100

Airport Operational Statistics

Aircraft based on the field: 206
Single engine airplanes: 171
Multi engine airplanes: 20
Jet airplanes: 7
Helicopters: 8
    
Aircraft operations: avg 242/day *
54% transient general aviation
44% local general aviation
1% air taxi
<1% military
<1% commercial
* for 12-month period ending 31 December 2015

Additional Remarks

EXTENSIVE HELICOPTER TFC WEST OF RWY.
HEL TEST FAC AT ARPT, 1975 OPNS 15200, MOSTLY FM PVT HELIPAD ADJOINING LNDG AREA.

Instrument Procedures

NOTE: All procedures below are presented as PDF files. If you need a reader for these files, you should download the free Adobe Reader.

NOT FOR NAVIGATION. Please procure official charts for flight.
FAA instrument procedures published for use from 18 July 2019 at 0901Z to 16 August 2019 at 0900Z.

 
STARs - Standard Terminal Arrivals
DODJE FIVE   2 pages: [1] [2]
KNEAD EIGHT **NEW**   2 pages: [1] [2] (425KB)
MOTZA NINE **NEW**   2 pages: [1] [2]
REEKO THREE (RNAV)   download
SASIE FIVE   2 pages: [1] [2]
SWVAY FOUR (RNAV)   download (225KB)
TRUUK TWO (RNAV)   download
WESAT TWO (RNAV)   download
 
IAPs - Instrument Approach Procedures
ILS OR LOC/DME RWY 34   download (258KB)
RNAV (GPS) RWY 34   download (209KB)
VOR/DME RWY 34   download (196KB)
NOTE: Special Alternate Minimums apply   download (16KB)
 
Departure Procedures
DALLAS FOUR   2 pages: [1] [2] (528KB)
GARLAND SIX   2 pages: [1] [2] (357KB)
HUBBARD NINE   2 pages: [1] [2] (345KB)
JOE POOL NINE   2 pages: [1] [2] (540KB)
KINGDOM FOUR   2 pages: [1] [2] (383KB)
KUSSO FIVE (RNAV)   2 pages: [1] [2] (300KB)
SWABR FIVE (RNAV)   2 pages: [1] [2] (295KB)
TEXOMA FIVE   2 pages: [1] [2] (509KB)
WORTH ONE   2 pages: [1] [2] (522KB)
NOTE: Special Take-Off Minimums/Departure Procedures apply   download

Other nearby airports with instrument procedures:

KGPM - Grand Prairie Municipal Airport (3 nm NE)
KRBD - Dallas Executive Airport (11 nm E)
KFWS - Fort Worth Spinks Airport (12 nm SW)
KDFW - Dallas-Fort Worth International Airport (14 nm N)
KJWY - Mid-Way Regional Airport (15 nm SE)
KDAL - Dallas Love Field Airport (16 nm NE)
KFTW - Fort Worth Meacham International Airport (16 nm NW)
KNFW - Fort Worth Naval Air Station JRB (Carswell Field) Airport (19 nm W)
KLNC - Lancaster Regional Airport (20 nm E)
 
Loc | Ops | Rwys | IFR | FBO | Links
Com | Nav | Svcs | Stats | Notes
Area around KGKY (Arlington Municipal Airport)
 
Road maps at: MapQuest Bing Google
 
Aerial photo
WARNING: Photo may not be current or correct
Aerial photo of KGKY (Arlington Municipal Airport)
Photo by Jeff Law
Photo taken 19-Feb-2013
looking northwest.

Do you have a better or more recent aerial photo of Arlington Municipal Airport that you would like to share? If so, please send us your photo.

 
Sectional chart

 
Airport diagram
CAUTION: Diagram may not be current
Diagram of KGKY (Arlington Municipal Airport)
 
Airport distance calculator
Flying to Arlington Municipal Airport? Find the distance to fly.

From to KGKY

Sunrise and sunset
Times for 22-Jul-2019
 Local
(UTC-5)
 Zulu
(UTC)
Morning civil twilight06:0911:09
Sunrise06:3711:37
Sunset20:3301:33
Evening civil twilight21:0002:00

Current date and time
Zulu (UTC)  22-Jul-2019 21:13:13
Local (UTC-5)  22-Jul-2019 16:13:13
 
METAR
KGKY 222053Z 35013G20KT 10SM FEW039 BKN046 34/23 A2998 RMK AO2 SLP140 60000 T03390228 58014
KGPM 
3nm NE 
222050Z 35010G21KT 10SM SKC 32/21 A2999
KRBD 
12nm E 
222053Z 35013G19KT 10SM BKN044 33/22 A2996 RMK AO2 SLP137 60000 T03330217 56015
KFWS 
12nm SW 
222050Z 00000KT 10SM SCT050 28/22 A3000
KDFW 
15nm N 
222053Z 36015KT 10SM FEW040 SCT220 33/22 A2997 RMK AO2 SLP139 60001 T03330222 56016
KJWY 
15nm SE 
222055Z AUTO 32009KT 10SM CLR 32/22 A2998 RMK AO2 T03240220
KDAL 
17nm NE 
222053Z 36013G20KT 10SM SCT044 SCT100 BKN250 34/22 A2996 RMK AO2 SLP138 TCU DSNT SE-S 60000 T03390217 56017 $
KFTW 
17nm NW 
222053Z 36014KT 10SM BKN042 32/22 A2998 RMK AO2 SLP142 6//// T03220222 56017 $
KNFW 
19nm W 
222052Z 36015KT 10SM BKN040 BKN100 BKN250 34/21 A2999 RMK AO2 SLP139 60000 T03440211 56015 VISNO N $
KLNC 
20nm E 
222055Z AUTO 33012KT 10SM CLR 33/22 A2997 RMK AO2 T03330223
TAF
KGKY 221725Z 2218/2318 30008KT P6SM VCSH SCT050 BKN080 FM221900 34011KT P6SM SCT030 SCT100 FM230200 02016KT P6SM FEW250
KDFW 
15nm N 
221725Z 2218/2324 30008KT P6SM VCSH SCT050 BKN080 FM221900 34011KT P6SM SCT030 SCT100 FM230200 02016KT P6SM FEW250
KDAL 
17nm NE 
221725Z 2218/2318 30008KT P6SM VCSH SCT050 BKN080 FM221900 34011KT P6SM SCT030 SCT100 FM230200 02016KT P6SM FEW250
KFTW 
17nm NW 
221725Z 2218/2318 30008KT P6SM VCSH SCT050 BKN080 FM221900 34011KT P6SM SCT030 SCT100 FM230200 02016KT P6SM FEW250
KNFW 
19nm W 
2217/2315 01015KT 9999 VCTS FEW060CB SCT150 BKN250 QNH2994INS TEMPO 2217/2219 01018G25KT 9000 -TSRA SCT030CB BKN120 BKN250 FM222100 01015G22KT 9999 SCT040 BKN100 BKN250 QNH2988INS BECMG 2201/2203 02012KT 9999 NSW FEW055 SCT100 SCT250 QNH2992INS T36/2222Z T23/2312Z AMD 1730 FN20046
NOTAMs
Click for the latest NOTAMs
NOTAMs are issued by the DoD/FAA and will open in a separate window not controlled by AirNav.

 

 
 

FBO, Fuel Providers, and Aircraft Ground Support

  
 Business Name 
 
 Contact 
 
 Services / Description 
 
Fuel Prices
 
Comments
  
Harrison Aviation ASRI 131.325
817-557-0350
toll-free 1-888-383-5354
[web site]
[email]
Arlington is home to the new Dallas Cowboy Stadium and Arlington Municipal Airport is located in the heart of the DFW metroplex with quick access to I-20 and Hwy 360. Dallas, Fort Worth, and Arlington are just minutes away.

Come for your business meeting and then stay for the entertainment (Dallas Cowboys, Texas Rangers, Lone Star Park, Nokia Theater)
More info and photos of Harrison Aviation
 
NATA Safety 1st   U.S. Government Contract Fuel   CAA Preferred FBO   Crew cars   National Business Aviation Association  
 
Shell
100LL Jet A
FS $4.79 $4.99 
SS $4.29 --- 
 Updated 16-Jul-2019
 
   6 read write
Alternatives at nearby airports
IMPORTANT: Note that the FBOs below are NOT at KGKY but at other nearby airports. Do not expect services from these FBOs to be available at KGKY.
Located at KRBD
Ambassador Jet Center
ASRI 131.90
214-623-8800
214-251-6512
[web site]
[email]
At KRBD (Dallas Executive Airport), 11 miles E

Premier FBO situated minutes south of downtown Dallas - convenient to Dallas Market Center, Dallas Convention Center, American Airline Arena, premier hotels and cultural district as well as Cowboys Stadium, Rangers Ballpark in Arlington, Six Flags, and Lone Star Park. Unmatched personal service provided by our dedicated customer service team.
More info and photos of Ambassador Jet Center (KRBD)
Located at KRBD
Avfuel
100LL Jet A
FS $4.95 $4.75 
GUARANTEED
AirBossMEMBER
PRICING
FS $4.85 $4.60 
 
   35 read write
FS=Full service
SS=Self service
Update Fuel Prices
 

Aviation Businesses, Services, and Facilities

  
 Business Name 
 
 Contact 
 
 Services / Description 
 
Distance
 
Comments
  
Airline Transport Professionals - ATP Flight School 904-595-7950
[web site]
[email]
ATP provides professional, accelerated, airline-oriented flight training at 42 flight schools nationwide. ATP's Airline Career Pilot Program prepares pilots for airline careers from zero time to 1,500 hours, with CFI jobs and airline employment. Fly with the nation's largest flight school and gain access to more aircraft, locations, and job placements than any flight school, academy, or aviation university can offer.
More info and photos of Airline Transport Professionals - ATP Flight School
on airport  
   1 read write
 Van Bortel Aircraft
817-468-7788
toll-free 1-800-759-4295
[web site]
[email]
Aircraft maintenance, Avionics sales and service, Aircraft modifications, Aircraft parts, Aviation accessories, Aircraft sales / leasing / brokerage
 
Cessna Service Center   Garmin  
 
More info about Van Bortel Aircraft
on airport  
   write
 

Would you like to see your business listed on this page?

 If your business provides an interesting product or service to pilots, flight crews, aircraft, or users of the Arlington Municipal Airport, you should consider listing it here.  To start the listing process, click on the button below
 
Add a business
 

Other Pages about Arlington Municipal Airport

www.arlingtontx.gov/aviation
 
Update a link
 
Copyright © AirNav, LLC. All rights reserved. Privacy Policy  Contact